Time,TemperatureF,DewpointF,PressureIn,WindDirection,WindDirectionDegrees,WindSpeedMPH,WindSpeedGustMPH,Humidity,HourlyPrecipIn,Conditions,Clouds,dailyrainin,SoftwareType,DateUTC
2013-05-07 00:14:00,65.8,63.0,29.95,NNW,337,0.0,0.0,92,0.00,,,0.00,weatherlink.com 1.10,2013-05-07 10:14:00,
2013-05-07 00:32:00,65.6,63.0,29.94,NNW,337,0.0,0.0,92,0.00,,,0.00,weatherlink.com 1.10,2013-05-07 10:32:00,
2013-05-07 00:51:00,65.6,64.0,29.93,NNW,337,0.0,0.0,93,0.00,,,0.00,weatherlink.com 1.10,2013-05-07 10:51:00,
2013-05-07 01:09:00,65.4,63.0,29.93,NNW,337,0.0,0.0,93,0.00,,,0.00,weatherlink.com 1.10,2013-05-07 11:09:00,
2013-05-07 01:27:00,65.2,63.0,29.92,NNW,337,0.0,0.0,93,0.00,,,0.00,weatherlink.com 1.10,2013-05-07 11:27:00,
2013-05-07 01:44:00,65.1,63.0,29.91,NNW,337,0.0,0.0,93,0.00,,,0.00,weatherlink.com 1.10,2013-05-07 11:44:00,
2013-05-07 02:03:00,65.3,64.0,29.91,NNW,337,0.0,0.0,94,0.00,,,0.00,weatherlink.com 1.10,2013-05-07 12:03:00,
2013-05-07 02:21:00,65.2,63.0,29.90,NNW,337,0.0,0.0,94,0.00,,,0.00,weatherlink.com 1.10,2013-05-07 12:21:00,
2013-05-07 02:39:00,65.1,63.0,29.90,NNW,337,0.0,0.0,94,0.00,,,0.00,weatherlink.com 1.10,2013-05-07 12:39:00,
2013-05-07 02:57:00,65.2,63.0,29.90,NNW,337,0.0,0.0,94,0.00,,,0.00,weatherlink.com 1.10,2013-05-07 12:57:00,
2013-05-07 03:15:00,65.2,63.0,29.90,NNW,337,0.0,0.0,94,0.00,,,0.00,weatherlink.com 1.10,2013-05-07 13:15:00,
2013-05-07 03:34:00,65.2,63.0,29.90,NNW,337,0.0,0.0,94,0.00,,,0.00,weatherlink.com 1.10,2013-05-07 13:34:00,
2013-05-07 04:15:00,64.8,63.0,29.90,NNW,337,0.0,0.0,94,0.00,,,0.00,weatherlink.com 1.10,2013-05-07 14:15:00,
2013-05-07 04:34:00,64.6,63.0,29.90,NNW,337,0.0,0.0,94,0.00,,,0.00,weatherlink.com 1.10,2013-05-07 14:34:00,
2013-05-07 04:52:00,64.4,63.0,29.90,NNW,337,0.0,0.0,94,0.00,,,0.00,weatherlink.com 1.10,2013-05-07 14:52:00,
2013-05-07 05:10:00,64.3,63.0,29.91,NNW,337,0.0,0.0,95,0.00,,,0.00,weatherlink.com 1.10,2013-05-07 15:10:00,
2013-05-07 05:28:00,64.1,63.0,29.91,NNW,337,0.0,0.0,95,0.00,,,0.00,weatherlink.com 1.10,2013-05-07 15:28:00,
2013-05-07 05:47:00,64.3,63.0,29.91,NNW,337,0.0,0.0,95,0.00,,,0.00,weatherlink.com 1.10,2013-05-07 15:47:00,
2013-05-07 06:05:00,64.6,63.0,29.92,NNW,337,0.0,0.0,95,0.00,,,0.00,weatherlink.com 1.10,2013-05-07 16:05:00,
2013-05-07 06:25:00,64.9,64.0,29.93,NNW,337,0.0,0.0,96,0.00,,,0.00,weatherlink.com 1.10,2013-05-07 16:25:00,
2013-05-07 06:44:00,66.1,65.0,29.93,NNW,337,0.0,0.0,96,0.00,,,0.00,weatherlink.com 1.10,2013-05-07 16:44:00,
2013-05-07 07:02:00,68.3,67.0,29.94,NNW,337,0.0,0.0,96,0.00,,,0.00,weatherlink.com 1.10,2013-05-07 17:02:00,
2013-05-07 07:20:00,70.3,68.0,29.94,NNW,337,0.0,0.0,94,0.00,,,0.00,weatherlink.com 1.10,2013-05-07 17:20:00,
2013-05-07 07:38:00,72.4,68.0,29.95,NNW,337,0.0,0.0,86,0.00,,,0.00,weatherlink.com 1.10,2013-05-07 17:38:00,
2013-05-07 07:57:00,74.2,68.0,29.95,NNW,337,0.0,2.0,81,0.00,,,0.00,weatherlink.com 1.10,2013-05-07 17:57:00,
2013-05-07 08:39:00,76.2,68.0,29.95,NW,304,0.0,4.0,75,0.00,,,0.00,weatherlink.com 1.10,2013-05-07 18:39:00,
2013-05-07 08:57:00,77.2,69.0,29.95,NE,35,0.0,5.0,76,0.00,,,0.00,weatherlink.com 1.10,2013-05-07 18:57:00,
2013-05-07 09:19:00,78.5,68.0,29.96,North,11,4.0,7.0,70,0.00,,,0.00,weatherlink.com 1.10,2013-05-07 19:19:00,
2013-05-07 09:41:00,79.1,69.0,29.96,North,5,3.0,7.0,72,0.00,,,0.00,weatherlink.com 1.10,2013-05-07 19:41:00,
2013-05-07 09:59:00,77.4,68.0,29.96,NNE,27,4.0,6.0,73,0.00,,,0.00,weatherlink.com 1.10,2013-05-07 19:59:00,
2013-05-07 10:18:00,78.2,68.0,29.96,ENE,57,0.0,4.0,72,0.00,,,0.00,weatherlink.com 1.10,2013-05-07 20:18:00,
2013-05-07 10:38:00,77.0,68.0,29.96,NE,51,1.0,4.0,74,0.00,,,0.00,weatherlink.com 1.10,2013-05-07 20:38:00,
2013-05-07 10:57:00,76.4,68.0,29.96,NNW,342,1.0,5.0,76,0.00,,,0.00,weatherlink.com 1.10,2013-05-07 20:57:00,
2013-05-07 11:15:00,76.1,68.0,29.96,NNW,336,6.0,6.0,76,0.00,,,0.00,weatherlink.com 1.10,2013-05-07 21:15:00,
2013-05-07 11:34:00,76.9,68.0,29.96,NNW,348,0.0,6.0,74,0.00,,,0.00,weatherlink.com 1.10,2013-05-07 21:34:00,
2013-05-07 11:52:00,77.0,68.0,29.95,NNE,13,0.0,7.0,73,0.00,,,0.00,weatherlink.com 1.10,2013-05-07 21:52:00,
2013-05-07 12:10:00,77.0,68.0,29.95,NE,35,2.0,6.0,74,0.00,,,0.00,weatherlink.com 1.10,2013-05-07 22:10:00,
2013-05-07 12:28:00,76.8,68.0,29.95,North,11,3.0,6.0,74,0.00,,,0.00,weatherlink.com 1.10,2013-05-07 22:28:00,
2013-05-07 12:46:00,77.2,68.0,29.94,NNW,339,0.0,4.0,74,0.00,,,0.00,weatherlink.com 1.10,2013-05-07 22:46:00,
2013-05-07 13:04:00,76.9,68.0,29.94,North,10,0.0,5.0,74,0.00,,,0.00,weatherlink.com 1.10,2013-05-07 23:04:00,
2013-05-07 13:23:00,76.6,68.0,29.93,NE,46,0.0,6.0,74,0.00,,,0.00,weatherlink.com 1.10,2013-05-07 23:23:00,
2013-05-07 13:41:00,76.5,68.0,29.93,NW,310,4.0,6.0,75,0.00,,,0.00,weatherlink.com 1.10,2013-05-07 23:41:00,
2013-05-07 13:59:00,76.3,67.0,29.93,NE,56,0.0,5.0,74,0.00,,,0.00,weatherlink.com 1.10,2013-05-07 23:59:00,
2013-05-07 14:36:00,76.2,67.0,29.92,North,5,2.0,7.0,74,0.00,,,0.00,weatherlink.com 1.10,2013-05-08 00:36:00,
2013-05-07 14:55:00,75.9,67.0,29.92,NE,37,1.0,8.0,75,0.00,,,0.00,weatherlink.com 1.10,2013-05-08 00:55:00,
2013-05-07 15:13:00,75.7,67.0,29.92,NNW,337,3.0,7.0,75,0.00,,,0.00,weatherlink.com 1.10,2013-05-08 01:13:00,
2013-05-07 15:32:00,75.7,67.0,29.92,NNW,334,3.0,5.0,75,0.00,,,0.00,weatherlink.com 1.10,2013-05-08 01:32:00,
2013-05-07 15:51:00,75.8,67.0,29.91,NNW,347,3.0,5.0,75,0.00,,,0.00,weatherlink.com 1.10,2013-05-08 01:51:00,
2013-05-07 16:09:00,75.9,67.0,29.91,NNW,336,4.0,6.0,74,0.00,,,0.00,weatherlink.com 1.10,2013-05-08 02:09:00,
2013-05-07 16:27:00,75.8,67.0,29.91,NW,306,3.0,5.0,73,0.00,,,0.00,weatherlink.com 1.10,2013-05-08 02:27:00,
2013-05-07 17:28:00,75.7,66.0,29.92,NNW,338,4.0,7.0,73,0.00,,,0.00,weatherlink.com 1.10,2013-05-08 03:28:00,
2013-05-07 17:47:00,75.5,66.0,29.92,NNW,327,1.0,6.0,73,0.00,,,0.00,weatherlink.com 1.10,2013-05-08 03:47:00,
2013-05-07 18:04:00,75.2,66.0,29.92,NNW,334,2.0,5.0,73,0.00,,,0.00,weatherlink.com 1.10,2013-05-08 04:04:00,
2013-05-07 18:23:00,75.0,66.0,29.93,NW,315,0.0,5.0,74,0.00,,,0.00,weatherlink.com 1.10,2013-05-08 04:23:00,
2013-05-07 18:41:00,74.8,66.0,29.93,NNW,341,1.0,4.0,74,0.00,,,0.00,weatherlink.com 1.10,2013-05-08 04:41:00,
2013-05-07 18:59:00,74.4,66.0,29.94,NNW,328,0.0,5.0,74,0.00,,,0.00,weatherlink.com 1.10,2013-05-08 04:59:00,
2013-05-07 19:17:00,74.2,66.0,29.94,NNW,341,0.0,1.0,75,0.00,,,0.00,weatherlink.com 1.10,2013-05-08 05:17:00,
2013-05-07 19:35:00,73.9,65.0,29.95,NNW,341,0.0,1.0,75,0.00,,,0.00,weatherlink.com 1.10,2013-05-08 05:35:00,
2013-05-07 19:54:00,73.5,65.0,29.95,NNW,341,0.0,0.0,76,0.00,,,0.00,weatherlink.com 1.10,2013-05-08 05:54:00,
2013-05-07 20:12:00,72.8,65.0,29.96,NNW,341,0.0,0.0,77,0.00,,,0.00,weatherlink.com 1.10,2013-05-08 06:12:00,
2013-05-07 20:30:00,72.5,65.0,29.96,NNW,341,0.0,0.0,77,0.00,,,0.00,weatherlink.com 1.10,2013-05-08 06:30:00,
2013-05-07 20:49:00,72.3,66.0,29.96,NNW,341,0.0,0.0,80,0.00,,,0.00,weatherlink.com 1.10,2013-05-08 06:49:00,
2013-05-07 21:07:00,71.7,66.0,29.97,NNW,341,0.0,0.0,81,0.00,,,0.00,weatherlink.com 1.10,2013-05-08 07:07:00,
2013-05-07 21:25:00,71.0,65.0,29.97,NNW,341,0.0,0.0,82,0.00,,,0.00,weatherlink.com 1.10,2013-05-08 07:25:00,
2013-05-07 21:43:00,70.7,66.0,29.98,NNW,341,0.0,0.0,85,0.00,,,0.00,weatherlink.com 1.10,2013-05-08 07:43:00,
2013-05-07 22:02:00,70.8,65.0,29.98,NNW,333,0.0,1.0,83,0.00,,,0.00,weatherlink.com 1.10,2013-05-08 08:02:00,
2013-05-07 22:20:00,71.5,65.0,29.99,NNW,333,0.0,0.0,80,0.00,,,0.00,weatherlink.com 1.10,2013-05-08 08:20:00,
2013-05-07 22:38:00,70.7,65.0,29.98,NNW,333,0.0,0.0,82,0.00,,,0.00,weatherlink.com 1.10,2013-05-08 08:38:00,
2013-05-07 22:57:00,69.5,64.0,29.99,NNW,333,0.0,0.0,84,0.00,,,0.00,weatherlink.com 1.10,2013-05-08 08:57:00,
2013-05-07 23:16:00,68.6,64.0,29.98,NNW,333,0.0,0.0,86,0.00,,,0.00,weatherlink.com 1.10,2013-05-08 09:16:00,
2013-05-07 23:34:00,67.7,64.0,29.98,NNW,333,0.0,0.0,87,0.00,,,0.00,weatherlink.com 1.10,2013-05-08 09:34:00,
2013-05-07 23:52:00,67.1,63.0,29.97,NNW,333,0.0,0.0,88,0.00,,,0.00,weatherlink.com 1.10,2013-05-08 09:52:00,